�N����,����,�~����,�C��,���x,�C��,����,���ϕ���,�ő�u�ԕ���,�ő厞����,���˗�,�I�_���x,�n�����x,�ő啗���N��,DTYPE
"19/09/18","00:10",0.0,23.4,80.0,1005.5,317.3,1.6,3.2,333.8,0.00,19.8,24.7,"00:04:32",1
"19/09/18","00:20",0.0,23.3,80.1,1005.5,321.5,1.6,2.7,331.7,0.00,19.7,24.9,"00:18:32",1
"19/09/18","00:30",0.0,23.3,80.0,1005.7,301.2,1.3,3.2,326.0,0.00,19.7,24.7,"00:22:16",1
"19/09/18","00:40",0.0,23.3,80.2,1005.2,310.2,1.2,3.3,339.4,0.00,19.7,24.8,"00:38:24",1
"19/09/18","00:50",0.0,23.3,80.3,1005.5,302.0,1.1,2.6,324.0,0.00,19.8,24.5,"00:45:04",1
"19/09/18","01:00",0.0,23.2,80.5,1005.2,299.7,1.3,2.7,329.2,0.00,19.7,24.6,"00:55:28",1
"19/09/18","01:10",0.0,23.3,80.4,1005.2,312.1,1.3,2.1,335.7,0.00,19.8,24.7,"01:06:32",1
"19/09/18","01:20",0.0,23.3,80.2,1005.5,319.3,1.5,2.7,324.9,0.00,19.7,24.6,"01:12:00",1
"19/09/18","01:30",0.0,23.2,80.3,1005.2,294.8,1.1,2.1,314.8,0.00,19.7,24.6,"01:29:12",1
"19/09/18","01:40",0.0,23.2,80.4,1005.5,311.3,1.3,2.5,342.9,0.00,19.7,24.6,"01:34:56",1
"19/09/18","01:50",0.0,23.1,80.6,1005.7,305.0,1.1,2.0,334.4,0.00,19.6,24.5,"01:48:56",1
"19/09/18","02:00",0.0,23.1,80.8,1005.0,300.9,1.3,2.5,338.4,0.00,19.7,24.6,"01:50:24",1
"19/09/18","02:10",0.0,23.0,80.9,1005.0,316.3,1.2,2.6,343.5,0.00,19.6,24.3,"02:08:08",1
"19/09/18","02:20",0.0,23.0,80.9,1004.5,321.1,1.6,3.1,341.9,0.00,19.6,24.5,"02:12:56",1
"19/09/18","02:30",0.0,22.9,81.0,1004.5,301.3,1.5,3.7,334.8,0.00,19.5,24.5,"02:20:40",1
"19/09/18","02:40",0.0,22.8,81.4,1004.3,296.0,1.1,2.2,309.1,0.00,19.5,24.4,"02:32:48",1
"19/09/18","02:50",0.0,22.9,81.7,1004.3,295.9,1.1,2.6,323.2,0.00,19.6,24.4,"02:45:04",1
"19/09/18","03:00",0.0,22.8,81.9,1004.5,303.8,1.0,1.6,293.3,0.00,19.6,24.3,"02:56:40",1
"19/09/18","03:10",0.0,22.8,82.0,1004.5,309.5,1.3,2.4,308.8,0.00,19.6,24.3,"03:04:48",1
"19/09/18","03:20",0.0,22.8,81.7,1004.8,310.8,1.2,2.8,337.3,0.00,19.5,24.4,"03:18:16",1
"19/09/18","03:30",0.0,22.8,81.7,1004.8,302.9,1.3,2.5,327.0,0.00,19.5,24.5,"03:23:36",1
"19/09/18","03:40",0.0,22.8,81.7,1004.8,304.6,1.5,3.2,335.0,0.00,19.5,24.3,"03:36:00",1
"19/09/18","03:50",0.0,22.8,81.5,1004.5,307.2,1.6,3.1,339.9,0.00,19.5,24.3,"03:44:16",1
"19/09/18","04:00",0.0,22.9,81.0,1004.5,315.7,1.8,4.3,331.0,0.00,19.5,24.2,"03:52:08",1
"19/09/18","04:10",0.0,23.0,80.4,1004.8,312.6,1.7,3.7,339.1,0.00,19.5,24.3,"04:09:48",1
"19/09/18","04:20",0.0,23.0,79.9,1004.5,312.5,1.7,3.1,335.1,0.00,19.4,24.2,"04:16:56",1
"19/09/18","04:30",0.0,23.0,79.9,1004.5,291.9,1.3,2.8,331.1,0.00,19.4,24.2,"04:22:08",1
"19/09/18","04:40",0.0,23.0,80.0,1004.5,292.9,1.1,1.9,316.1,0.00,19.4,24.1,"04:30:08",1
"19/09/18","04:50",0.0,22.9,80.5,1004.5,282.8,1.1,2.4,333.3,0.00,19.4,24.1,"04:44:32",1
"19/09/18","05:00",0.0,22.9,80.6,1004.8,262.9,1.2,2.4,238.7,0.00,19.4,24.2,"04:54:32",1
"19/09/18","05:10",0.0,22.8,80.8,1004.5,266.7,1.2,2.5,263.0,0.00,19.4,24.1,"05:08:32",1
"19/09/18","05:20",0.0,22.8,80.7,1004.5,297.0,1.0,2.1,312.8,0.00,19.4,24.0,"05:10:02",1
"19/09/18","05:30",0.0,22.6,80.9,1004.8,312.3,1.3,3.5,352.7,0.00,19.2,24.0,"05:25:28",1
"19/09/18","05:40",0.0,22.6,81.3,1004.5,312.3,2.1,3.7,344.3,0.00,19.3,24.3,"05:39:20",1
"19/09/18","05:50",0.0,22.6,81.7,1004.3,293.3,1.3,2.5,323.2,0.00,19.4,24.2,"05:42:56",1
"19/09/18","06:00",0.0,22.6,81.8,1004.8,310.3,1.5,2.6,332.1,0.00,19.4,24.0,"05:58:32",1
"19/09/18","06:10",0.0,22.7,81.5,1004.8,314.3,1.6,3.4,331.1,0.00,19.4,24.1,"06:01:28",1
"19/09/18","06:20",0.0,22.7,81.3,1004.8,295.1,1.0,2.1,340.4,0.00,19.4,24.0,"06:14:00",1
"19/09/18","06:30",0.0,22.8,81.3,1004.5,294.6,0.8,1.8,329.3,0.00,19.5,24.0,"06:25:36",1
"19/09/18","06:40",0.0,22.9,81.4,1004.8,285.3,1.1,1.9,312.2,0.00,19.6,24.0,"06:33:20",1
"19/09/18","06:50",0.0,22.9,81.3,1004.8,297.8,1.1,1.8,320.0,0.00,19.6,23.9,"06:43:52",1
"19/09/18","07:00",0.0,22.8,81.5,1004.8,306.3,1.1,2.0,320.2,0.00,19.5,24.0,"06:56:48",1
"19/09/18","07:10",0.0,22.8,81.7,1005.0,278.7,1.1,1.9,292.8,0.00,19.5,24.0,"07:07:04",1
"19/09/18","07:20",0.0,22.8,81.9,1005.2,291.2,1.0,1.8,314.6,0.00,19.6,24.0,"07:18:00",1
"19/09/18","07:30",0.0,22.8,82.1,1005.0,298.3,1.1,1.9,336.2,0.00,19.6,24.0,"07:20:02",1
"19/09/18","07:40",0.0,22.8,82.2,1005.2,303.2,1.2,2.0,339.0,0.00,19.6,24.1,"07:30:24",1
"19/09/18","07:50",0.0,22.8,82.4,1005.5,298.8,1.2,2.1,324.2,0.00,19.7,24.1,"07:42:32",1
"19/09/18","08:00",0.0,22.9,82.4,1005.2,305.7,1.2,2.9,346.4,0.01,19.8,24.0,"07:59:44",1
"19/09/18","08:10",0.0,23.0,82.8,1005.5,303.3,1.1,2.6,339.8,0.02,20.0,24.1,"08:06:40",1
"19/09/18","08:20",0.0,23.2,82.8,1005.5,329.1,2.3,4.8,339.1,0.05,20.2,24.1,"08:16:00",1
"19/09/18","08:30",0.0,23.4,82.2,1005.5,322.2,2.2,3.5,322.3,0.07,20.2,24.0,"08:21:44",1
"19/09/18","08:40",0.0,23.8,81.1,1005.5,330.5,2.2,4.1,355.2,0.07,20.4,24.2,"08:37:52",1
"19/09/18","08:50",0.0,24.2,79.8,1005.7,316.8,1.7,3.7,321.6,0.08,20.5,24.4,"08:46:08",1
"19/09/18","09:00",0.0,24.4,78.6,1005.5,334.4,2.6,5.0,339.1,0.08,20.5,24.3,"08:58:08",1
"19/09/18","09:10",0.0,24.5,77.7,1005.2,328.6,2.3,5.1,343.9,0.09,20.4,24.4,"09:01:28",1
"19/09/18","09:20",0.0,25.1,77.2,1005.2,344.7,1.2,3.4,346.3,0.14,20.9,24.5,"09:12:00",1
"19/09/18","09:30",0.0,24.9,75.6,1006.0,309.7,0.8,2.0,338.4,0.14,20.3,24.6,"09:26:56",1
"19/09/18","09:40",0.0,25.0,75.5,1005.7,354.7,1.0,1.9,343.2,0.11,20.4,24.7,"09:36:40",1
"19/09/18","09:50",0.0,25.1,76.3,1005.7,325.2,1.3,3.7,348.7,0.09,20.7,24.8,"09:47:28",1
"19/09/18","10:00",0.0,25.0,75.7,1005.5,286.9,1.1,2.4,329.4,0.08,20.5,24.8,"09:50:48",1
"19/09/18","10:10",0.0,25.0,76.1,1005.5,303.5,1.1,2.2,290.6,0.07,20.5,24.9,"10:05:28",1
"19/09/18","10:20",0.0,25.0,76.0,1005.7,330.0,1.7,3.4,338.3,0.08,20.5,24.9,"10:16:32",1
"19/09/18","10:30",0.0,24.9,75.9,1005.5,334.7,1.6,3.1,327.2,0.08,20.4,24.9,"10:21:44",1
"19/09/18","10:40",0.0,24.7,76.6,1005.5,317.6,1.7,3.9,329.3,0.10,20.4,25.0,"10:31:36",1
"19/09/18","10:50",0.0,25.0,76.5,1005.2,338.0,1.6,3.9,342.9,0.15,20.6,25.1,"10:47:52",1
"19/09/18","11:00",0.0,26.3,73.4,1005.0,344.3,1.8,3.6,346.0,0.42,21.2,25.2,"10:52:08",1
"19/09/18","11:10",0.0,25.9,72.0,1004.8,22.3,1.6,3.6,355.5,0.34,20.5,25.3,"11:00:48",1
"19/09/18","11:20",0.0,26.6,69.7,1004.3,8.9,0.8,1.9,355.7,0.33,20.6,25.7,"11:17:36",1
"19/09/18","11:30",0.0,26.4,70.2,1003.8,348.3,1.8,4.0,342.5,0.22,20.6,25.7,"11:23:52",1
"19/09/18","11:40",0.0,27.7,66.1,1003.4,350.3,1.6,3.4,352.7,0.47,20.8,26.1,"11:30:48",1
"19/09/18","11:50",0.0,27.7,64.2,1004.3,10.0,1.1,3.3,0.8,0.46,20.4,26.3,"11:45:12",1
"19/09/18","12:00",0.0,27.7,65.4,1004.1,358.1,1.3,3.3,337.7,0.29,20.7,26.6,"11:58:16",1
"19/09/18","12:10",0.0,27.7,63.3,1004.3,8.7,1.5,3.5,19.9,0.31,20.1,26.7,"12:07:12",1
"19/09/18","12:20",0.0,27.3,64.1,1003.8,44.5,1.3,3.1,347.1,0.25,20.0,26.7,"12:10:16",1
"19/09/18","12:30",0.0,28.0,63.1,1003.6,31.4,1.5,3.6,6.2,0.35,20.4,26.9,"12:28:08",1
"19/09/18","12:40",0.0,27.3,63.4,1003.4,2.5,1.7,4.3,341.4,0.22,19.8,27.0,"12:33:12",1
"19/09/18","12:50",0.0,27.0,65.5,1003.1,345.6,2.0,4.2,335.2,0.13,20.0,27.0,"12:42:56",1
"19/09/18","13:00",0.0,27.2,65.0,1002.9,344.7,1.5,3.2,344.1,0.10,20.1,27.2,"12:59:36",1
"19/09/18","13:10",0.0,26.8,65.4,1002.9,344.3,2.1,4.5,351.6,0.12,19.8,27.1,"13:01:52",1
"19/09/18","13:20",0.0,27.6,65.7,1002.6,345.0,1.5,3.3,356.0,0.19,20.6,26.8,"13:11:20",1
"19/09/18","13:30",0.0,28.6,60.8,1002.6,359.4,2.0,4.3,321.0,0.48,20.3,26.9,"13:20:02",1
"19/09/18","13:40",0.0,28.1,60.6,1002.6,340.8,2.5,4.9,349.7,0.49,19.8,27.2,"13:37:36",1
"19/09/18","13:50",0.0,28.8,58.5,1002.9,7.2,1.7,4.4,354.2,0.50,19.9,27.3,"13:49:12",1
"19/09/18","14:00",0.0,28.1,59.7,1003.1,359.3,1.6,4.1,338.3,0.26,19.6,27.5,"13:58:16",1
"19/09/18","14:10",0.0,27.5,62.0,1002.6,3.3,1.7,3.4,354.3,0.11,19.6,27.6,"14:05:52",1
"19/09/18","14:20",0.0,27.2,61.3,1002.9,355.9,2.6,6.7,349.0,0.18,19.1,27.7,"14:17:04",1
"19/09/18","14:30",0.0,27.1,61.0,1002.4,351.1,2.6,4.8,27.3,0.15,19.0,27.5,"14:21:12",1
"19/09/18","14:40",0.0,27.0,61.7,1002.4,344.9,2.8,5.5,343.4,0.15,19.1,27.3,"14:39:36",1
"19/09/18","14:50",0.0,26.4,61.1,1002.4,342.0,3.4,6.3,344.0,0.12,18.3,27.4,"14:42:56",1
"19/09/18","15:00",0.0,26.6,61.3,1002.4,345.8,2.6,4.9,345.1,0.12,18.6,27.4,"14:53:36",1
"19/09/18","15:10",0.0,26.6,61.9,1002.6,341.7,2.1,4.5,356.0,0.14,18.7,26.9,"15:01:20",1
"19/09/18","15:20",0.0,26.6,57.2,1002.9,332.8,2.7,6.5,338.7,0.19,17.5,27.0,"15:17:52",1
"19/09/18","15:30",0.0,27.3,56.2,1002.9,340.6,3.0,5.4,336.2,0.20,17.9,27.1,"15:27:20",1
"19/09/18","15:40",0.0,27.9,56.9,1002.9,345.7,2.8,6.4,331.8,0.31,18.6,27.1,"15:38:24",1
"19/09/18","15:50",0.0,28.1,57.8,1002.9,359.1,2.2,4.9,334.6,0.34,19.0,27.2,"15:40:16",1
"19/09/18","16:00",0.0,27.2,56.9,1002.9,10.5,2.0,4.9,352.3,0.19,18.0,27.3,"15:52:24",1
"19/09/18","16:10",0.0,27.4,56.3,1002.9,8.4,2.2,5.5,8.8,0.23,18.0,27.1,"16:06:08",1
"19/09/18","16:20",0.0,27.6,57.4,1002.9,352.7,2.1,5.2,346.7,0.26,18.5,27.3,"16:18:16",1
"19/09/18","16:30",0.0,27.0,57.7,1002.9,330.6,2.1,4.5,334.2,0.19,18.0,27.3,"16:28:08",1
"19/09/18","16:40",0.0,26.6,59.5,1003.4,339.3,2.1,7.3,344.9,0.12,18.1,27.2,"16:34:06",1
"19/09/18","16:50",0.0,26.7,57.2,1003.4,349.0,2.5,7.0,316.3,0.20,17.6,27.2,"16:49:04",1
"19/09/18","17:00",0.0,26.2,58.0,1003.6,12.5,3.2,6.2,356.5,0.14,17.3,26.9,"16:55:44",1
"19/09/18","17:10",0.0,25.9,58.1,1004.1,15.2,2.8,5.5,37.7,0.11,17.1,26.8,"17:03:56",1
"19/09/18","17:20",0.0,25.8,58.8,1004.1,3.8,2.1,4.3,40.1,0.09,17.2,26.7,"17:15:06",1
"19/09/18","17:30",0.0,25.4,58.4,1004.5,345.7,2.2,5.0,330.1,0.07,16.7,26.7,"17:29:02",1
"19/09/18","17:40",0.0,25.0,58.7,1004.5,331.8,2.5,4.8,337.1,0.04,16.4,26.5,"17:34:32",1
"19/09/18","17:50",0.0,24.5,58.9,1004.8,339.7,3.0,5.5,342.9,0.02,16.0,26.4,"17:48:32",1
"19/09/18","18:00",0.0,24.2,59.6,1005.0,336.7,2.5,5.8,336.3,0.01,15.9,26.1,"17:52:24",1
"19/09/18","18:10",0.0,23.9,61.0,1005.0,317.9,1.8,5.1,336.5,0.00,16.0,26.0,"18:02:00",1
"19/09/18","18:20",0.0,23.6,62.2,1005.2,340.2,1.7,3.6,350.2,0.00,16.0,25.7,"18:18:56",1
"19/09/18","18:30",0.0,23.3,63.0,1005.5,329.6,1.6,4.1,336.8,0.00,15.9,25.7,"18:20:16",1
"19/09/18","18:40",0.0,22.9,64.9,1005.5,327.0,1.7,4.0,323.2,0.00,16.0,25.5,"18:37:20",1
"19/09/18","18:50",0.0,22.6,65.9,1005.5,322.6,1.5,3.6,338.1,0.00,15.9,25.6,"18:41:44",1
"19/09/18","19:00",0.0,22.4,66.8,1005.5,330.9,1.8,3.2,322.6,0.00,16.0,25.3,"18:52:00",1
"19/09/18","19:10",0.0,22.3,67.3,1005.5,341.3,2.0,4.4,337.6,0.00,16.0,25.1,"19:04:08",1
"19/09/18","19:20",0.0,22.1,67.6,1006.2,329.1,1.1,2.8,350.2,0.00,15.9,25.2,"19:19:52",1
"19/09/18","19:30",0.0,21.8,68.9,1006.0,327.0,1.8,3.1,317.2,0.00,15.9,24.8,"19:21:04",1
"19/09/18","19:40",0.0,21.2,71.2,1006.0,319.8,1.2,2.2,336.8,0.00,15.8,24.7,"19:34:00",1
"19/09/18","19:50",0.0,20.8,73.0,1006.2,323.6,1.2,2.1,339.2,0.00,15.8,24.6,"19:48:24",1
"19/09/18","20:00",0.0,20.4,75.9,1006.0,332.7,0.8,1.7,354.6,0.00,16.0,24.6,"19:56:48",1
"19/09/18","20:10",0.0,20.0,77.0,1006.7,308.8,0.7,1.4,355.4,0.00,15.9,24.5,"20:06:56",1
"19/09/18","20:20",0.0,19.6,78.9,1006.4,326.4,1.0,1.6,338.7,0.00,15.9,24.4,"20:11:28",1
"19/09/18","20:30",0.0,19.3,81.0,1006.9,310.7,0.7,1.6,331.3,0.00,16.0,24.2,"20:26:00",1
"19/09/18","20:40",0.0,19.0,81.9,1006.9,310.4,0.6,2.0,319.2,0.00,15.9,24.2,"20:39:52",1
"19/09/18","20:50",0.0,18.8,83.3,1007.4,327.3,1.0,1.4,318.1,0.00,15.9,24.1,"20:44:16",1
"19/09/18","21:00",0.0,18.8,83.4,1006.9,324.1,1.1,1.8,341.4,0.00,16.0,24.2,"20:57:20",1
"19/09/18","21:10",0.0,18.7,84.3,1007.1,317.5,1.1,1.9,336.6,0.00,16.0,23.9,"21:05:28",1
"19/09/18","21:20",0.0,18.6,84.8,1006.9,322.9,1.1,2.1,350.7,0.00,16.0,23.8,"21:14:40",1
"19/09/18","21:30",0.0,18.7,85.1,1006.9,305.1,1.3,2.4,339.5,0.00,16.2,23.8,"21:26:48",1
"19/09/18","21:40",0.0,19.0,84.8,1006.7,280.3,1.0,1.8,330.6,0.00,16.4,23.7,"21:31:20",1
"19/09/18","21:50",0.0,19.4,83.3,1006.7,280.3,0.7,1.8,325.4,0.00,16.5,23.6,"21:41:20",1
"19/09/18","22:00",0.0,19.6,82.4,1007.1,232.1,0.5,1.6,248.6,0.00,16.6,23.5,"21:51:44",1
"19/09/18","22:10",0.0,19.3,81.8,1007.1,314.1,1.2,2.5,337.2,0.00,16.2,23.4,"22:01:12",1
"19/09/18","22:20",0.0,18.8,83.0,1007.4,322.0,1.2,2.7,329.1,0.00,15.9,23.3,"22:12:40",1
"19/09/18","22:30",0.0,18.4,84.7,1007.1,313.5,1.0,1.7,323.5,0.00,15.8,23.2,"22:24:00",1
"19/09/18","22:40",0.0,18.4,85.4,1007.4,309.5,0.8,2.1,341.6,0.00,15.9,23.1,"22:31:28",1
"19/09/18","22:50",0.0,18.3,86.1,1007.6,322.1,1.3,2.1,311.7,0.00,16.0,23.2,"22:48:08",1
"19/09/18","23:00",0.0,18.3,86.3,1007.6,330.2,0.7,1.4,326.5,0.00,16.0,23.1,"22:56:08",1
"19/09/18","23:10",0.0,18.2,86.8,1007.4,307.9,1.0,1.3,306.9,0.00,16.0,23.1,"23:04:56",1
"19/09/18","23:20",0.0,18.2,86.7,1007.1,312.1,1.0,1.9,335.1,0.00,16.0,22.9,"23:14:40",1
"19/09/18","23:30",0.0,17.9,87.2,1006.9,309.7,1.1,1.7,323.9,0.00,15.8,22.8,"23:22:56",1
"19/09/18","23:40",0.0,18.0,88.2,1007.1,300.3,0.8,1.9,333.5,0.00,16.1,22.8,"23:30:56",1
"19/09/18","23:50",0.0,18.1,88.4,1006.7,296.2,0.8,2.4,354.7,0.00,16.2,22.9,"23:48:16",1
"19/09/18","24:00",0.0,18.4,88.2,1006.9,299.2,0.7,1.4,344.5,0.00,16.5,22.6,"23:56:32",1
